Flag for U.S.A. Weather past 2 weeks in Fremont, California, U.S.A.

Now
53 °F

Clear.


Feels Like: 53 °F
Forecast: 53 / 67 °F
Wind: No wind

Location: Moffett Field

Current Time: Oct 21, 2014 at 6:05:22 AM

Latest Report: Oct 21, 2014 at 4:56 AM


Visibility: 10 mi

Pressure: 30.09 "Hg

Humidity: 93%

Dew point: 51 °F

Location of FremontLocation

Historic Weather in Fremont — Graph

°F

Fremont temperature yesterday

Maximum temperature yesterday: 69 °F (at 10:56 AM)
Minimum temperature yesterday: 58 °F (at 10:56 PM)
Average temperature yesterday: 63 °F

Past Weeks' High & Low Weather Summary

 TemperatureHumidityPressure
High89 °F (Oct 12, 3:56 PM)100% (Oct 7, 2:56 AM)30.10 "Hg (Oct 7, 2:56 AM)
Low53 °F (Oct 17, 2:56 AM)11% (Oct 12, 4:56 PM)29.83 "Hg (Oct 14, 6:03 PM)
Average65 °F72%29.96 "Hg
* Reported Oct 6 4:56 AM — Oct 21 4:56 AM, Fremont, Weather by CustomWeather, © 2014

Note: Actual official high and low records may vary slightly from our data, if they occured in-between our weather recording intervals... More about our weather records

Advertising

Fremont weather history for previous 24 hours

 ConditionsComfort  
Time TempWeatherWind HumidityBarometerVisibility
4:56 AM
Oct 21
53 °FClear.No wind93%30.09 "Hg10 mi
3:56 AM54 °FPassing clouds.No wind86%30.10 "Hg10 mi
2:56 AM54 °FClear.No wind93%30.09 "Hg10 mi
1:56 AM55 °FClear.No wind87%30.09 "Hg10 mi
12:56 AM57 °FClear.3 mph83%30.09 "Hg10 mi
11:56 PM
Oct 20
58 °FPassing clouds.3 mph87%30.09 "Hg10 mi
10:56 PM58 °FClear.3 mph87%30.07 "Hg10 mi
9:56 PM60 °FClear.No wind90%30.05 "Hg10 mi
8:56 PM62 °FClear.3 mph78%30.03 "Hg10 mi
7:56 PM63 °FClear.6 mph75%30.03 "Hg10 mi
6:56 PM64 °FSunny.5 mph68%30.01 "Hg10 mi
5:56 PM66 °FPassing clouds.7 mph54%29.99 "Hg10 mi
4:56 PM65 °FPartly sunny.5 mph78%29.99 "Hg10 mi
3:56 PM65 °FOvercast.No wind78%29.99 "Hg10 mi
2:56 PM64 °FOvercast.3 mph87%29.99 "Hg10 mi
1:56 PM62 °FLight rain. Fog.8 mph100%30.00 "Hg4 mi
12:56 PM65 °FOvercast.6 mph91%30.00 "Hg10 mi
11:56 AM63 °FLight rain. Fog.10 mph97%30.00 "Hg4 mi
10:56 AM69 °FOvercast.No wind61%29.98 "Hg10 mi
9:56 AM67 °FPassing clouds.6 mph73%29.97 "Hg10 mi
8:56 AM64 °FSunny.8 mph87%29.95 "Hg10 mi
7:56 AM61 °FClear.3 mph90%29.94 "Hg10 mi
6:56 AM60 °FClear.No wind86%29.94 "Hg10 mi
Weather by CustomWeather, © 2014

See weather overviewHow to use our weather pages